Regional Weather Roundup
Issued by NWS

Home | Current Version | Previous Version | Text Only | Print | Product List | Glossary Off
Versions: 1 2 3 4 5 6 7 8 9 10 11 12 13 14 15 16 17 18 19 20 21 22 23 24 25 26 27 28 29 30 31 32 33 34 35 36 37 38 39 40 41 42 43 44 45 46 47 48 49 50

000
ASUS43 KFSD 230510
RWRSD

WEATHER ROUNDUP FOR SOUTH DAKOTA
NATIONAL WEATHER SERVICE SIOUX FALLS SD
1200 AM CDT WED JUL 23 2014

NOTE: "FAIR" INDICATES FEW OR NO CLOUDS BELOW 12,000 FEET WITH NO
SIGNIFICANT WEATHER AND/OR OBSTRUCTIONS TO VISIBILITY.


SDZ001>005-009-010-012>017-230600-
NORTHWEST AND NORTH CENTRAL SOUTH DAKOTA

CITY           SKY/WX    TMP DP  RH WIND       PRES   REMARKS
BUFFALO          N/A     63  58  83 SE5       30.19S
FAITH            N/A     67  60  78 S12       30.23R
MOBRIDGE       CLOUDY    69  62  78 SE9       30.19F
$$

SDZ012>016-024>037-041>051-057-063-072>074-230600-
SOUTHWEST AND SOUTH CENTRAL SOUTH DAKOTA

CITY           SKY/WX    TMP DP  RH WIND       PRES   REMARKS
RAPID CTY ARPT TSTM      68  63  84 E13       30.29F
PIERRE         CLOUDY    73  60  63 S18       30.16F
CUSTER         MOCLDY    62  58  86 E13       30.41R
ELLSWORTH AFB  TSTM      68  65  90 SE14      30.29F
PHILIP         MOCLDY    74  58  57 SE13      30.24S
PINE RIDGE     LGT RAIN  70  64  81 E15G23    30.24F
WINNER         FAIR      72  59  63 NE5       30.29R
$$

SDZ004>011-016>023-039-040-230600-
NORTHEAST SOUTH DAKOTA

CITY           SKY/WX    TMP DP  RH WIND       PRES   REMARKS
ABERDEEN       MOCLDY    62  59  90 SE3       30.25F
WATERTOWN      PTCLDY    61  57  87 N3        30.27R
SISSETON         N/A     61  60  97 NW3       30.25R
$$

SDZ017-020-022-023-036>040-048>070-230600-
SOUTHEAST SOUTH DAKOTA

CITY           SKY/WX    TMP DP  RH WIND       PRES   REMARKS
SIOUX FALLS    PTCLDY    63  58  83 N5        30.24R
HURON          MOCLDY    64  59  83 NW3       30.26R
CHAMBERLAIN    CLOUDY    71  58  65 NE5       30.28R
MITCHELL       MOCLDY    67  62  84 N3        30.26R
YANKTON        CLEAR     66  61  82 N6        30.23R
$$

ABBREVIATIONS USED IN REMARKS
   TC - TEMPERATURE IN CELSIUS
  WCI - WIND CHILL INDEX
   HX - HEAT INDEX
  VSB - VISIBILITY



USA.gov is the U.S. government's official web portal to all federal, state and local government web resources and services.